| time (UTC) | temp C | wind direction | speed KPH | gust KPH | rain 1hr cm | rain 24hr cm | rain mn cm | humidity % | barometer mb |
| 20260506070822 | 9 | 0 | 4.8 | 14.5 | 0.00 | 0.18 | 0.18 | 93 | 1007.1 |
| 20260506070451 | 9 | 304 | 4.8 | 14.5 | 0.00 | 0.18 | 0.18 | 93 | 1007.0 |
| 20260506070418 | 9 | 329 | 4.8 | 14.5 | 0.00 | 0.18 | 0.18 | 93 | 1007.0 |
| 20260506061814 | 8 | 355 | 3.2 | 9.7 | 0.03 | 0.18 | 0.18 | 94 | 1007.0 |
| 20260506061313 | 8 | 337 | 4.8 | 12.9 | 0.03 | 0.18 | 0.18 | 94 | 1006.9 |
| 20260506060813 | 8 | 348 | 3.2 | 12.9 | 0.03 | 0.18 | 0.18 | 94 | 1006.8 |
| 20260506060317 | 8 | 346 | 1.6 | 11.3 | 0.03 | 0.18 | 0.18 | 94 | 1006.8 |
| 20260506060143 | 8 | 24 | 1.6 | 6.4 | 0.03 | 0.18 | 0.18 | 94 | 1006.8 |
| 20260506051109 | 8 | 346 | 3.2 | 9.7 | 0.03 | 0.15 | 0.15 | 94 | 1006.8 |
| 20260506050658 | 8 | 5 | 3.2 | 8.0 | 0.03 | 0.15 | 0.15 | 94 | 1006.8 |
| 20260506050346 | 8 | 28 | 3.2 | 9.7 | 0.03 | 0.15 | 0.15 | 94 | 1006.8 |
| 20260506044803 | 8 | 57 | 4.8 | 12.9 | 0.05 | 0.15 | 0.15 | 94 | 1006.8 |
| 20260506044303 | 8 | 5 | 4.8 | 12.9 | 0.05 | 0.15 | 0.15 | 94 | 1006.9 |
| 20260506044059 | 8 | 329 | 3.2 | 9.7 | 0.05 | 0.15 | 0.15 | 94 | 1006.9 |
| 20260506043253 | 8 | 325 | 4.8 | 14.5 | 0.03 | 0.15 | 0.15 | 94 | 1006.9 |
| 20260506042751 | 8 | 5 | 3.2 | 14.5 | 0.03 | 0.15 | 0.15 | 95 | 1006.8 |
| 20260506042250 | 8 | 319 | 3.2 | 6.4 | 0.05 | 0.15 | 0.15 | 95 | 1006.9 |
| 20260506041747 | 8 | 28 | 3.2 | 6.4 | 0.05 | 0.15 | 0.15 | 95 | 1006.8 |
| 20260506041248 | 8 | 22 | 3.2 | 8.0 | 0.05 | 0.15 | 0.15 | 94 | 1006.8 |
| 20260506040747 | 8 | 331 | 3.2 | 8.0 | 0.05 | 0.15 | 0.15 | 94 | 1006.9 |
| 20260506040249 | 8 | 0 | 3.2 | 8.0 | 0.05 | 0.15 | 0.15 | 94 | 1006.9 |
| 20260506035746 | 8 | 5 | 1.6 | 6.4 | 0.05 | 0.15 | 0.15 | 94 | 1006.9 |
| 20260506035636 | 8 | 23 | 3.2 | 8.0 | 0.05 | 0.13 | 0.13 | 94 | 1007.0 |
| 20260506035626 | 8 | 57 | 3.2 | 8.0 | 0.05 | 0.13 | 0.13 | 94 | 1006.9 |
| 20260506034240 | 8 | 348 | 4.8 | 8.0 | 0.05 | 0.13 | 0.13 | 94 | 1007.0 |
| 20260506034038 | 8 | 5 | 4.8 | 8.0 | 0.05 | 0.13 | 0.13 | 94 | 1006.9 |
| 20260506033535 | 8 | 344 | 4.8 | 9.7 | 0.05 | 0.13 | 0.13 | 94 | 1007.0 |
| 20260506032741 | 8 | 337 | 4.8 | 9.7 | 0.05 | 0.13 | 0.13 | 94 | 1007.0 |
| 20260506032243 | 8 | 30 | 4.8 | 9.7 | 0.05 | 0.10 | 0.10 | 94 | 1007.0 |
| 20260506031743 | 8 | 355 | 4.8 | 12.9 | 0.05 | 0.10 | 0.10 | 94 | 1007.0 |
| 20260506031240 | 8 | 0 | 4.8 | 12.9 | 0.05 | 0.10 | 0.10 | 94 | 1007.1 |
| 20260506030735 | 8 | 343 | 4.8 | 12.9 | 0.05 | 0.10 | 0.10 | 94 | 1007.1 |
| 20260506030238 | 8 | 68 | 4.8 | 12.9 | 0.03 | 0.08 | 0.08 | 94 | 1007.2 |
| 20260506025735 | 8 | 5 | 4.8 | 11.3 | 0.05 | 0.08 | 0.08 | 94 | 1007.3 |
| 20260506025224 | 8 | 334 | 3.2 | 9.7 | 0.05 | 0.08 | 0.08 | 93 | 1007.3 |
| 20260506024812 | 8 | 28 | 4.8 | 12.9 | 0.05 | 0.08 | 0.08 | 93 | 1007.4 |
| 20260506024751 | 8 | 0 | 4.8 | 12.9 | 0.05 | 0.08 | 0.08 | 93 | 1007.4 |
| 20260506023711 | 8 | 355 | 4.8 | 8.0 | 0.05 | 0.08 | 0.08 | 93 | 1007.3 |
| 20260506023214 | 8 | 5 | 4.8 | 16.1 | 0.05 | 0.08 | 0.08 | 93 | 1007.3 |
| 20260506022707 | 8 | 16 | 4.8 | 16.1 | 0.05 | 0.08 | 0.05 | 93 | 1007.4 |
| 20260506022206 | 8 | 12 | 4.8 | 12.9 | 0.05 | 0.05 | 0.05 | 93 | 1007.3 |
| 20260506021705 | 8 | 27 | 3.2 | 12.9 | 0.05 | 0.05 | 0.05 | 93 | 1007.4 |
| 20260506021209 | 8 | 355 | 4.8 | 11.3 | 0.05 | 0.05 | 0.05 | 93 | 1007.4 |
| 20260506020704 | 8 | 5 | 4.8 | 9.7 | 0.05 | 0.05 | 0.05 | 92 | 1007.4 |
| 20260506020455 | 8 | 5 | 3.2 | 8.0 | 0.05 | 0.08 | 0.05 | 92 | 1007.5 |
| 20260506015956 | 8 | 348 | 4.8 | 19.3 | 0.05 | 0.05 | 0.05 | 92 | 1007.5 |
| 20260506015204 | 8 | 0 | 4.8 | 19.3 | 0.05 | 0.05 | 0.05 | 92 | 1007.5 |
| 20260506014706 | 8 | 296 | 3.2 | 8.0 | 0.05 | 0.05 | 0.05 | 92 | 1007.6 |
| 20260506014457 | 8 | 0 | 3.2 | 8.0 | 0.05 | 0.05 | 0.03 | 92 | 1007.6 |
| 20260506013711 | 8 | 22 | 3.2 | 8.0 | 0.03 | 0.05 | 0.03 | 92 | 1007.6 |
| 20260506013217 | 8 | 5 | 3.2 | 9.7 | 0.03 | 0.05 | 0.03 | 92 | 1007.6 |
| 20260506012955 | 8 | 26 | 4.8 | 16.1 | 0.03 | 0.05 | 0.03 | 91 | 1007.6 |
| 20260506012204 | 8 | 15 | 4.8 | 16.1 | 0.03 | 0.05 | 0.03 | 91 | 1007.7 |
| 20260506011955 | 8 | 5 | 4.8 | 16.1 | 0.00 | 0.05 | 0.00 | 91 | 1007.6 |
| 20260506011159 | 8 | 325 | 6.4 | 16.1 | 0.00 | 0.05 | 0.00 | 91 | 1007.7 |
| 20260506010702 | 9 | 32 | 6.4 | 14.5 | 0.00 | 0.05 | 0.00 | 90 | 1007.7 |
| 20260506010444 | 9 | 329 | 4.8 | 14.5 | 0.00 | 0.05 | 0.00 | 90 | 1007.7 |
| 20260506005658 | 9 | 355 | 6.4 | 14.5 | 0.00 | 0.05 | 0.00 | 90 | 1007.7 |
| 20260506005157 | 9 | 336 | 6.4 | 14.5 | 0.00 | 0.05 | 0.00 | 90 | 1007.8 |
| 20260506004655 | 9 | 0 | 4.8 | 16.1 | 0.00 | 0.08 | 0.00 | 89 | 1007.8 |
| 20260506004155 | 9 | 19 | 6.4 | 16.1 | 0.00 | 0.08 | 0.00 | 89 | 1007.9 |
| 20260506003655 | 9 | 62 | 6.4 | 14.5 | 0.00 | 0.08 | 0.00 | 89 | 1007.9 |
| 20260506003155 | 9 | 22 | 6.4 | 14.5 | 0.00 | 0.08 | 0.00 | 88 | 1007.9 |
| 20260506002653 | 9 | 317 | 6.4 | 14.5 | 0.00 | 0.10 | 0.00 | 88 | 1007.8 |
| 20260506002349 | 9 | 5 | 4.8 | 16.1 | 0.00 | 0.13 | 0.00 | 89 | 1007.9 |
| 20260506002345 | 9 | 5 | 4.8 | 12.9 | 0.00 | 0.13 | 0.00 | 89 | 1008.0 |
| 20260506002320 | 9 | 348 | 6.4 | 16.1 | 0.00 | 0.10 | 0.00 | 88 | 1007.9 |
| 20260506000653 | 9 | 24 | 4.8 | 12.9 | 0.00 | 0.15 | 0.00 | 89 | 1008.0 |
| 20260506000155 | 9 | 349 | 6.4 | 14.5 | 0.00 | 0.15 | 0.00 | 89 | 1008.0 |
| 20260505235655 | 9 | 39 | 6.4 | 14.5 | 0.00 | 0.15 | 0.00 | 89 | 1008.1 |
| 20260505235153 | 9 | 351 | 4.8 | 12.9 | 0.00 | 0.15 | 0.00 | 89 | 1008.1 |
| 20260505234653 | 9 | 334 | 4.8 | 14.5 | 0.00 | 0.18 | 0.00 | 89 | 1008.2 |
| 20260505234153 | 9 | 16 | 4.8 | 14.5 | 0.00 | 0.20 | 0.00 | 89 | 1008.2 |
| 20260505233654 | 9 | 355 | 6.4 | 16.1 | 0.00 | 0.23 | 0.00 | 89 | 1008.3 |
| 20260505233152 | 9 | 336 | 6.4 | 16.1 | 0.00 | 0.25 | 0.00 | 89 | 1008.3 |
| 20260505232653 | 9 | 355 | 6.4 | 14.5 | 0.00 | 0.28 | 0.00 | 89 | 1008.3 |
| 20260505232153 | 9 | 288 | 6.4 | 14.5 | 0.00 | 0.30 | 0.00 | 89 | 1008.4 |
| 20260505231654 | 9 | 321 | 6.4 | 16.1 | 0.00 | 0.33 | 0.00 | 89 | 1008.4 |
| 20260505231154 | 9 | 62 | 6.4 | 16.1 | 0.00 | 0.38 | 0.00 | 89 | 1008.4 |
| 20260505230659 | 9 | 22 | 4.8 | 11.3 | 0.00 | 0.41 | 0.00 | 89 | 1008.5 |
| 20260505230153 | 9 | 39 | 6.4 | 16.1 | 0.00 | 0.43 | 0.00 | 89 | 1008.5 |
| 20260505225653 | 9 | 331 | 8.0 | 17.7 | 0.00 | 0.46 | 0.00 | 89 | 1008.5 |
| 20260505225153 | 9 | 49 | 8.0 | 17.7 | 0.00 | 0.51 | 0.00 | 88 | 1008.5 |
| 20260505224941 | 9 | 106 | 6.4 | 16.1 | 0.00 | 0.53 | 0.00 | 89 | 1008.6 |
| 20260505224154 | 9 | 32 | 6.4 | 12.9 | 0.00 | 0.58 | 0.00 | 89 | 1008.6 |
| 20260505223654 | 10 | 296 | 6.4 | 16.1 | 0.00 | 0.61 | 0.00 | 88 | 1008.6 |
| 20260505223154 | 10 | 346 | 6.4 | 17.7 | 0.00 | 0.61 | 0.00 | 88 | 1008.6 |
| 20260505222653 | 10 | 11 | 4.8 | 17.7 | 0.00 | 0.61 | 0.00 | 88 | 1008.6 |
| 20260505222152 | 10 | 52 | 6.4 | 17.7 | 0.00 | 0.61 | 0.00 | 88 | 1008.8 |
| 20260505221653 | 10 | 11 | 6.4 | 17.7 | 0.00 | 0.61 | 0.00 | 88 | 1008.7 |
| 20260505221151 | 10 | 29 | 6.4 | 14.5 | 0.00 | 0.61 | 0.00 | 88 | 1008.7 |
| 20260505220650 | 10 | 355 | 6.4 | 19.3 | 0.00 | 0.61 | 0.00 | 88 | 1008.7 |
| 20260505220151 | 10 | 348 | 6.4 | 19.3 | 0.00 | 0.61 | 0.00 | 88 | 1008.7 |
| 20260505215648 | 10 | 19 | 6.4 | 14.5 | 0.00 | 0.61 | 0.61 | 88 | 1008.7 |
| 20260505215150 | 10 | 24 | 6.4 | 14.5 | 0.00 | 0.61 | 0.61 | 88 | 1008.8 |
| 20260505214648 | 10 | 51 | 6.4 | 17.7 | 0.00 | 0.61 | 0.61 | 88 | 1008.8 |
| 20260505214611 | 10 | 317 | 6.4 | 14.5 | 0.00 | 0.61 | 0.61 | 88 | 1008.9 |
| 20260505214246 | 10 | 350 | 6.4 | 17.7 | 0.00 | 0.61 | 0.61 | 88 | 1008.8 |
| 20260505213146 | 10 | 346 | 8.0 | 16.1 | 0.00 | 0.61 | 0.61 | 88 | 1008.9 |
| 20260505212645 | 10 | 5 | 8.0 | 16.1 | 0.00 | 0.61 | 0.61 | 88 | 1008.9 |
| 20260505212435 | 10 | 72 | 6.4 | 14.5 | 0.00 | 0.61 | 0.61 | 88 | 1008.9 |
| 20260505211646 | 10 | 32 | 6.4 | 16.1 | 0.00 | 0.61 | 0.61 | 88 | 1008.9 |
| 20260505211146 | 10 | 81 | 6.4 | 17.7 | 0.00 | 0.61 | 0.61 | 87 | 1008.9 |
| 20260505210943 | 10 | 350 | 6.4 | 17.7 | 0.00 | 0.64 | 0.61 | 88 | 1009.0 |
| 20260505210150 | 10 | 17 | 6.4 | 14.5 | 0.00 | 0.66 | 0.61 | 87 | 1008.9 |
| 20260505205647 | 10 | 338 | 6.4 | 17.7 | 0.00 | 0.69 | 0.61 | 88 | 1009.0 |
| 20260505205429 | 10 | 336 | 4.8 | 17.7 | 0.00 | 0.74 | 0.61 | 88 | 1009.1 |
| 20260505204645 | 10 | 18 | 4.8 | 14.5 | 0.00 | 0.79 | 0.61 | 88 | 1009.1 |
| 20260505204145 | 10 | 355 | 6.4 | 14.5 | 0.00 | 0.81 | 0.61 | 88 | 1009.1 |
| 20260505203641 | 10 | 30 | 6.4 | 12.9 | 0.00 | 0.86 | 0.61 | 88 | 1009.1 |
| 20260505203142 | 10 | 55 | 4.8 | 14.5 | 0.00 | 0.89 | 0.61 | 88 | 1009.1 |
| 20260505202642 | 10 | 9 | 4.8 | 14.5 | 0.00 | 0.91 | 0.61 | 88 | 1009.1 |
| 20260505202139 | 10 | 355 | 4.8 | 14.5 | 0.00 | 1.02 | 0.61 | 88 | 1009.1 |
| 20260505201640 | 10 | 327 | 4.8 | 14.5 | 0.00 | 1.09 | 0.61 | 88 | 1009.1 |
| 20260505201433 | 10 | 341 | 4.8 | 12.9 | 0.00 | 1.17 | 0.61 | 88 | 1009.1 |
| 20260505200641 | 10 | 9 | 4.8 | 16.1 | 0.00 | 1.22 | 0.61 | 88 | 1009.0 |
| 20260505200139 | 10 | 5 | 4.8 | 16.1 | 0.00 | 1.30 | 0.61 | 88 | 1009.0 |
| 20260505195639 | 10 | 5 | 6.4 | 17.7 | 0.00 | 1.40 | 0.61 | 88 | 1009.0 |
| 20260505195138 | 10 | 27 | 8.0 | 17.7 | 0.00 | 1.55 | 0.61 | 88 | 1009.0 |
| 20260505194638 | 10 | 346 | 8.0 | 17.7 | 0.00 | 1.70 | 0.61 | 88 | 1009.0 |
| 20260505194136 | 10 | 12 | 4.8 | 14.5 | 0.00 | 1.88 | 0.61 | 88 | 1008.9 |
| 20260505193635 | 10 | 0 | 4.8 | 14.5 | 0.00 | 2.29 | 0.61 | 88 | 1009.0 |
| 20260505193136 | 10 | 350 | 4.8 | 11.3 | 0.00 | 3.05 | 0.61 | 88 | 1008.9 |
| 20260505192634 | 10 | 55 | 6.4 | 14.5 | 0.00 | 3.38 | 0.61 | 88 | 1008.9 |
| 20260505192131 | 10 | 38 | 6.4 | 16.1 | 0.00 | 3.78 | 0.61 | 88 | 1008.8 |
| 20260505191633 | 10 | 26 | 6.4 | 17.7 | 0.00 | 4.01 | 0.61 | 88 | 1008.8 |
| 20260505191130 | 10 | 5 | 6.4 | 17.7 | 0.00 | 4.55 | 0.61 | 88 | 1008.8 |
| 20260505190632 | 10 | 345 | 6.4 | 14.5 | 0.00 | 4.90 | 0.61 | 88 | 1008.8 |
| 20260505190130 | 11 | 355 | 6.4 | 14.5 | 0.00 | 4.98 | 0.61 | 88 | 1008.8 |
| 20260505185632 | 11 | 28 | 6.4 | 14.5 | 0.00 | 5.00 | 0.61 | 88 | 1008.8 |
| 20260505185131 | 11 | 40 | 4.8 | 12.9 | 0.00 | 5.00 | 0.61 | 88 | 1008.8 |
| 20260505184630 | 11 | 300 | 4.8 | 11.3 | 0.00 | 5.00 | 0.61 | 88 | 1008.7 |
| 20260505184131 | 11 | 329 | 4.8 | 14.5 | 0.00 | 5.00 | 0.61 | 88 | 1008.6 |
| 20260505183633 | 11 | 22 | 6.4 | 14.5 | 0.00 | 5.00 | 0.61 | 88 | 1008.7 |
| 20260505183131 | 11 | 355 | 4.8 | 12.9 | 0.00 | 5.03 | 0.61 | 88 | 1008.7 |
| 20260505182934 | 11 | 333 | 4.8 | 14.5 | 0.00 | 5.03 | 0.61 | 88 | 1008.7 |
| 20260505182430 | 11 | 14 | 6.4 | 14.5 | 0.00 | 5.03 | 0.61 | 88 | 1008.6 |
| 20260505181620 | 11 | 346 | 6.4 | 14.5 | 0.00 | 5.03 | 0.61 | 87 | 1008.7 |
| 20260505181113 | 11 | 51 | 6.4 | 12.9 | 0.00 | 5.03 | 0.61 | 87 | 1008.7 |
| 20260505180609 | 11 | 15 | 6.4 | 12.9 | 0.00 | 5.03 | 0.61 | 88 | 1008.7 |
| 20260505180103 | 11 | 19 | 6.4 | 16.1 | 0.00 | 5.03 | 0.61 | 87 | 1008.7 |
| 20260505175604 | 11 | 9 | 6.4 | 16.1 | 0.00 | 5.03 | 0.61 | 87 | 1008.7 |
| 20260505175102 | 11 | 355 | 6.4 | 16.1 | 0.00 | 5.03 | 0.61 | 88 | 1008.7 |
| 20260505174604 | 11 | 26 | 6.4 | 16.1 | 0.00 | 5.03 | 0.61 | 88 | 1008.7 |
| 20260505174102 | 11 | 336 | 6.4 | 12.9 | 0.00 | 5.03 | 0.61 | 87 | 1008.7 |
| 20260505173858 | 11 | 60 | 4.8 | 20.9 | 0.00 | 5.03 | 0.61 | 87 | 1008.8 |
| 20260505173103 | 11 | 30 | 4.8 | 20.9 | 0.00 | 5.03 | 0.61 | 87 | 1008.8 |
| 20260505172602 | 11 | 336 | 4.8 | 14.5 | 0.00 | 5.03 | 0.61 | 87 | 1008.7 |
| 20260505172103 | 11 | 5 | 4.8 | 16.1 | 0.00 | 5.03 | 0.61 | 87 | 1008.8 |
| 20260505171603 | 11 | 10 | 4.8 | 16.1 | 0.00 | 5.03 | 0.61 | 87 | 1008.7 |
| 20260505171104 | 11 | 350 | 4.8 | 11.3 | 0.00 | 5.03 | 0.61 | 87 | 1008.8 |
| 20260505170602 | 11 | 67 | 4.8 | 11.3 | 0.00 | 5.03 | 0.61 | 87 | 1008.8 |
| 20260505165900 | 11 | 339 | 4.8 | 12.9 | 0.00 | 5.03 | 0.61 | 86 | 1008.8 |
| 20260505165401 | 11 | 338 | 4.8 | 14.5 | 0.00 | 5.03 | 0.61 | 86 | 1008.8 |
| 20260505164557 | 11 | 17 | 6.4 | 14.5 | 0.00 | 5.03 | 0.61 | 86 | 1008.9 |
| 20260505164055 | 11 | 65 | 4.8 | 14.5 | 0.00 | 5.03 | 0.61 | 86 | 1008.9 |
| 20260505163557 | 11 | 18 | 4.8 | 14.5 | 0.00 | 5.03 | 0.61 | 86 | 1008.9 |
| 20260505163054 | 11 | 13 | 4.8 | 12.9 | 0.00 | 5.03 | 0.61 | 86 | 1008.9 |
| 20260505162553 | 11 | 355 | 4.8 | 11.3 | 0.00 | 5.03 | 0.61 | 86 | 1009.0 |
| 20260505162051 | 11 | 318 | 4.8 | 14.5 | 0.00 | 5.03 | 0.61 | 86 | 1009.0 |
| 20260505161551 | 11 | 28 | 4.8 | 14.5 | 0.00 | 5.03 | 0.61 | 86 | 1009.1 |
| 20260505161051 | 11 | 15 | 4.8 | 11.3 | 0.00 | 5.03 | 0.61 | 85 | 1009.1 |
| 20260505160549 | 11 | 5 | 6.4 | 14.5 | 0.00 | 5.03 | 0.61 | 85 | 1009.1 |
| 20260505153044 | 12 | 28 | 6.4 | 19.3 | 0.00 | 5.03 | 0.61 | 85 | 1009.1 |
| 20260505152845 | 12 | 0 | 4.8 | 14.5 | 0.00 | 5.03 | 0.61 | 86 | 1009.1 |
| 20260505152043 | 12 | 17 | 6.4 | 14.5 | 0.00 | 5.03 | 0.61 | 86 | 1009.1 |
| 20260505151542 | 12 | 327 | 4.8 | 12.9 | 0.00 | 5.03 | 0.61 | 86 | 1009.2 |
| 20260505151041 | 12 | 24 | 4.8 | 16.1 | 0.00 | 5.03 | 0.61 | 86 | 1009.2 |
| 20260505150543 | 12 | 331 | 4.8 | 16.1 | 0.00 | 5.03 | 0.61 | 87 | 1009.2 |
| 20260505140533 | 11 | 0 | 3.2 | 9.7 | 0.00 | 5.03 | 0.61 | 89 | 1009.7 |
| 20260505140334 | 11 | 9 | 4.8 | 9.7 | 0.00 | 5.03 | 0.61 | 88 | 1009.7 |
| 20260505125035 | 11 | 36 | 4.8 | 12.9 | 0.00 | 5.03 | 0.61 | 89 | 1010.1 |
| 20260505124527 | 11 | 84 | 3.2 | 8.0 | 0.00 | 5.03 | 0.61 | 89 | 1010.2 |
| 20260505124022 | 11 | 5 | 4.8 | 16.1 | 0.00 | 5.03 | 0.61 | 90 | 1010.2 |
| 20260505123812 | 11 | 16 | 8.0 | 17.7 | 0.00 | 5.03 | 0.61 | 90 | 1010.2 |
| 20260505123021 | 11 | 355 | 8.0 | 17.7 | 0.00 | 5.03 | 0.61 | 89 | 1010.2 |
| 20260505122509 | 11 | 0 | 8.0 | 14.5 | 0.00 | 5.03 | 0.61 | 90 | 1010.3 |
| 20260505122000 | 11 | 355 | 6.4 | 16.1 | 0.00 | 5.03 | 0.61 | 90 | 1010.3 |
| 20260505121452 | 11 | 43 | 6.4 | 16.1 | 0.00 | 5.03 | 0.61 | 91 | 1010.3 |
| 20260505120944 | 11 | 86 | 4.8 | 14.5 | 0.00 | 5.03 | 0.61 | 91 | 1010.3 |
| 20260505120745 | 10 | 37 | 4.8 | 12.9 | 0.00 | 5.03 | 0.61 | 91 | 1010.3 |
| 20260505115935 | 10 | 59 | 4.8 | 12.9 | 0.00 | 5.03 | 0.61 | 91 | 1010.3 |
| 20260505115734 | 10 | 322 | 4.8 | 16.1 | 0.00 | 5.03 | 0.61 | 91 | 1010.4 |
| 20260505115044 | 10 | 345 | 4.8 | 14.5 | 0.00 | 5.03 | 0.61 | 91 | 1010.6 |
| 20260505115013 | 10 | 340 | 4.8 | 16.1 | 0.00 | 5.03 | 0.61 | 91 | 1010.5 |
| 20260505113929 | 10 | 28 | 4.8 | 14.5 | 0.00 | 5.03 | 0.61 | 91 | 1010.5 |
| 20260505113427 | 10 | 332 | 3.2 | 8.0 | 0.00 | 5.03 | 0.61 | 92 | 1010.5 |
| 20260505113226 | 10 | 46 | 4.8 | 9.7 | 0.00 | 5.03 | 0.61 | 92 | 1010.4 |
| 20260505112423 | 10 | 27 | 4.8 | 9.7 | 0.00 | 5.03 | 0.61 | 92 | 1010.4 |
| 20260505111922 | 10 | 30 | 4.8 | 11.3 | 0.00 | 5.03 | 0.61 | 92 | 1010.4 |
| 20260505111423 | 10 | 47 | 6.4 | 12.9 | 0.00 | 5.03 | 0.61 | 92 | 1010.4 |
| 20260505110924 | 10 | 56 | 4.8 | 14.5 | 0.00 | 5.03 | 0.61 | 92 | 1010.5 |
| 20260505110434 | 10 | 15 | 4.8 | 14.5 | 0.00 | 5.03 | 0.61 | 92 | 1010.6 |
| 20260505101905 | 9 | 59 | 6.4 | 19.3 | 0.00 | 5.03 | 0.61 | 95 | 1010.8 |
| 20260505101404 | 9 | 5 | 6.4 | 19.3 | 0.00 | 5.03 | 0.61 | 94 | 1010.8 |
| 20260505100905 | 9 | 337 | 6.4 | 14.5 | 0.00 | 5.03 | 0.61 | 95 | 1010.9 |
| 20260505100405 | 9 | 55 | 6.4 | 14.5 | 0.00 | 5.03 | 0.61 | 95 | 1010.9 |
| 20260505095904 | 9 | 14 | 6.4 | 14.5 | 0.00 | 5.03 | 0.61 | 95 | 1010.9 |
| 20260505095402 | 9 | 56 | 6.4 | 14.5 | 0.00 | 5.03 | 0.61 | 95 | 1010.8 |
| 20260505094904 | 9 | 333 | 4.8 | 12.9 | 0.00 | 5.03 | 0.61 | 95 | 1010.8 |
| 20260505094403 | 9 | 355 | 4.8 | 14.5 | 0.00 | 5.03 | 0.61 | 95 | 1010.9 |
| 20260505094204 | 9 | 88 | 6.4 | 14.5 | 0.00 | 5.03 | 0.61 | 95 | 1010.9 |
| 20260505093406 | 9 | 0 | 6.4 | 14.5 | 0.00 | 5.03 | 0.61 | 95 | 1010.9 |
| 20260505092903 | 9 | 350 | 4.8 | 14.5 | 0.00 | 5.03 | 0.61 | 95 | 1010.9 |
| 20260505092403 | 9 | 351 | 4.8 | 12.9 | 0.00 | 5.03 | 0.61 | 95 | 1010.9 |
| 20260505091902 | 9 | 0 | 6.4 | 14.5 | 0.00 | 5.03 | 0.61 | 95 | 1010.9 |
| 20260505091404 | 8 | 344 | 6.4 | 14.5 | 0.00 | 5.03 | 0.61 | 95 | 1010.8 |
| 20260505090858 | 8 | 338 | 6.4 | 16.1 | 0.00 | 5.03 | 0.61 | 95 | 1010.9 |
| 20260505090651 | 8 | 51 | 6.4 | 16.1 | 0.00 | 5.03 | 0.61 | 95 | 1010.9 |
| 20260505085850 | 8 | 46 | 6.4 | 14.5 | 0.00 | 5.03 | 0.61 | 95 | 1010.9 |
| 20260505085350 | 8 | 0 | 6.4 | 14.5 | 0.00 | 5.03 | 0.61 | 95 | 1010.9 |
| 20260505084848 | 8 | 20 | 6.4 | 16.1 | 0.00 | 5.03 | 0.61 | 95 | 1010.9 |
| 20260505084349 | 8 | 334 | 6.4 | 16.1 | 0.00 | 5.03 | 0.61 | 95 | 1011.0 |
| 20260505083848 | 8 | 38 | 6.4 | 14.5 | 0.00 | 5.03 | 0.61 | 95 | 1011.0 |
| 20260505083349 | 8 | 355 | 6.4 | 14.5 | 0.00 | 5.03 | 0.61 | 95 | 1010.9 |
| 20260505082848 | 8 | 43 | 6.4 | 14.5 | 0.00 | 5.03 | 0.61 | 95 | 1011.0 |
| 20260505082348 | 8 | 355 | 4.8 | 14.5 | 0.00 | 5.03 | 0.61 | 95 | 1011.0 |
| 20260505082156 | 8 | 20 | 6.4 | 20.9 | 0.00 | 5.03 | 0.61 | 95 | 1010.9 |
| 20260505081346 | 8 | 11 | 6.4 | 20.9 | 0.00 | 5.03 | 0.61 | 95 | 1010.9 |
| 20260505080938 | 8 | 23 | 6.4 | 17.7 | 0.00 | 5.03 | 0.61 | 94 | 1011.0 |
| 20260505080923 | 8 | 17 | 6.4 | 20.9 | 0.00 | 5.03 | 0.61 | 95 | 1011.0 |
| 20260505075844 | 8 | 342 | 6.4 | 16.1 | 0.00 | 5.03 | 0.61 | 95 | 1010.9 |
| 20260505075347 | 8 | 9 | 6.4 | 16.1 | 0.00 | 5.03 | 0.61 | 94 | 1010.9 |
| 20260505074847 | 8 | 33 | 6.4 | 19.3 | 0.00 | 5.03 | 0.61 | 94 | 1011.0 |
| 20260505074346 | 8 | 20 | 8.0 | 19.3 | 0.00 | 5.03 | 0.61 | 94 | 1010.9 |
| 20260505073845 | 8 | 355 | 6.4 | 16.1 | 0.00 | 5.03 | 0.61 | 94 | 1010.9 |
| 20260505073342 | 8 | 17 | 6.4 | 16.1 | 0.00 | 5.03 | 0.61 | 94 | 1010.9 |
| 20260505072840 | 8 | 329 | 6.4 | 14.5 | 0.00 | 5.03 | 0.61 | 95 | 1010.9 |
| 20260505072340 | 8 | 328 | 6.4 | 16.1 | 0.00 | 5.03 | 0.61 | 95 | 1011.0 |
| 20260505071839 | 8 | 55 | 6.4 | 16.1 | 0.00 | 5.03 | 0.61 | 95 | 1011.0 |
| 20260505071342 | 8 | 5 | 6.4 | 16.1 | 0.00 | 5.03 | 0.61 | 95 | 1011.0 |